Current weather by "City, St" or "zip code"  
 
Advertise Here

Current Conditions: Spokane, Felts Field, WA

Fair


35.0 F

Last Updated on Jan 20 2021, 11:53 am PST
Humidity: 76%
Wind Speed: N 0.0 mph
Barometer 30.13 in
Dewpoint: 28.0 F
Visibility: 10.00 mi
Precip: --
Heat Index: NA
Wind Chill: NA
Current conditions at:

Spokane, Felts Field, WA (KSFF)

Lat: 47.68556 Lon: 117.32028

Local Radar Image active severe weather and emergency alerts image image weather storm and storm spotter reports image weather observation monitoring service image
Local
Radar
Active
Alerts
Storm Reports Obs
Monitoring

Sign-up For Email & Text Message Weather Alert Notification Services


Advertise Here

Observation History for Spokane, Felts Field, WA


Time Wind
(mph)
Vis
(mi)
Weather Precip (in) Temperature (F) Relative
Humidity
Wind
Chill
(F)
Heat
Index
(F)
Pressure
Air Dwpt altimeter
(in)
sea level
(mb)
Rmks
11:53 am PST N 0.0 10.00 Fair -- 35.0 28.0 76% NA NA 30.13 1021.9
10:53 am PST N 0.0 10.00 Fair -- 33.0 27.0 78% NA NA 30.15 1022.6
9:53 am PST N 0.0 10.00 Fair -- 32.0 27.0 82% NA NA 30.16 1023.0
8:53 am PST N 0.0 10.00 Fair -- 31.0 28.0 89% NA NA 30.16 1022.9
7:53 am PST N 0.0 10.00 Partly Cloudy -- 30.0 27.0 88% NA NA 30.15 1022.8
6:53 am PST N 0.0 10.00 Overcast -- 31.0 26.1 82% NA NA 30.15 1022.7
5:53 am PST N 0.0 10.00 Overcast -- 30.0 28.0 92% NA NA 30.15 1022.8
4:53 am PST N 0.0 10.00 Overcast -- 28.0 25.0 88% NA NA 30.16 1023.1
3:53 am PST NE 3.5 10.00 Fair -- 28.0 26.1 92% NA NA 30.17 1023.2
2:53 am PST N 0.0 10.00 Fair -- 28.0 25.0 88% NA NA 30.18 1023.7
1:53 am PST N 0.0 10.00 Fair -- 30.0 27.0 88% NA NA 30.19 1024.1
12:53 am PST N 0.0 10.00 Fair -- 30.0 27.0 88% NA NA 30.21 1024.6
11:53 pm PST N 3.5 10.00 Fair -- 31.0 27.0 85% NA NA 30.22 1025.1
10:53 pm PST N 0.0 10.00 Overcast -- 35.0 27.0 72% NA NA 30.23 1025.4
9:53 pm PST E 3.5 10.00 Overcast -- 34.0 28.0 79% NA NA 30.24 1025.6
8:53 pm PST N 0.0 10.00 Partly Cloudy -- 34.0 28.0 79% NA NA 30.25 1026.2
7:53 pm PST NE 3.5 10.00 Fair -- 32.0 28.9 88% NA NA 30.27 1027.0
6:53 pm PST N 0.0 10.00 Fair -- 32.0 28.9 88% NA NA 30.29 1027.6
5:53 pm PST N 0.0 10.00 Mostly Cloudy -- 33.0 28.9 85% NA NA 30.33 1029.1
4:53 pm PST N 0.0 10.00 Mostly Cloudy -- 36.0 28.9 76% NA NA 30.35 1029.4
3:53 pm PST S 8.1 10.00 Mostly Cloudy -- 37.0 28.9 73% 31 NA 30.35 1029.5
2:53 pm PST S 8.1 10.00 Overcast -- 37.0 30.0 76% 31 NA 30.37 1030.4
1:53 pm PST S 5.8 10.00 Overcast -- 36.0 28.9 76% 31 NA 30.40 1031.4
12:53 pm PST N 0.0 10.00 Overcast -- 33.0 28.9 85% NA NA 30.44 1032.8

Regional Weather Observation


Spokane, Felts Field, WA (KSFF)

Fair
35.0 F

Spokane, Spokane International Airport, WA (KGEG)

Mostly Cloudy
32.0 F

Fairchild Air Force Base, WA (KSKA)

Fair
30.0 F

Coeur dAlene Airport - Pappy Boyington Field, ID (KCOE)

Fair
35.0 F

Sandpoint, Sandpoint Airport, ID (KSZT)

Fair
36.0 F

Boundary County Airport, ID (K65S)

Fair
32.0 F